Hourly Data Report for October 14, 2017

All times are specified in Local Standard Time (LST). Add 1 hour to adjust for Daylight Saving Time where and when it is observed.

KITCHENER/WATERLOO
ONTARIO

43°27'39.000" N
80°22'43.000" W
321.60 m
6144239
71368
YKF

Download Data

Hourly Data (October 2017)
Hourly Data Report for October 14, 2017
Temp Definition
°C
Dew Point Temp Definition
°C
Rel Hum Definition
%
Wind Dir Definition
10's deg

Wind Spd Definition
km/h
Visibility Definition
km
Stn Press Definition
kPa
Hmdx Definition


Wind Chill Definition


Weather Definition


TIME
00:00 Legend Double Dagger 10.9 10.9 100 19 5 1.0 98.32     Fog
01:00 Legend Double Dagger 11.3 11.3 100 LegendMM 4 0.4 98.34     Fog
02:00 Legend Double Dagger 11.4 11.4 100 16 4 0.4 98.33     Fog
03:00 Legend Double Dagger 12.8 12.8 100 LegendMM 4 4.0 98.34     Fog
04:00 Legend Double Dagger 12.9 12.9 100   0 4.8 98.36     Fog
05:00 Legend Double Dagger 13.0 13.0 100   0 4.8 98.39     Rain,Fog
06:00 Legend Double Dagger 13.7 13.7 100 28 5 2.8 98.43     Rain,Fog
07:00 Legend Double Dagger 14.0 14.0 100 31 5 4.8 98.46     Rain,Fog
08:00 Legend Double Dagger 14.2 14.1 99   0 4.0 98.52     Fog
09:00 Legend Double Dagger 15.1 14.8 98 19 4 4.8 98.52     Fog
10:00 Legend Double Dagger 16.4 15.0 91 23 5 11.3 98.51     LegendNANA
11:00 Legend Double Dagger 17.3 15.1 87 17 8 12.9 98.48     LegendNANA
12:00 Legend Double Dagger 17.6 14.4 81   0 16.1 98.37     LegendNANA
13:00 Legend Double Dagger 17.8 14.5 81 LegendMM 4 16.1 98.29     Rain
14:00 Legend Double Dagger 18.2 14.3 78 19 5 16.1 98.25     LegendNANA
15:00 Legend Double Dagger 17.9 14.6 81 12 4 16.1 98.26     LegendNANA
16:00 Legend Double Dagger 17.4 15.2 87   0 16.1 98.26     Rain
17:00 Legend Double Dagger 16.0 15.5 97 9 9 3.6 98.19     Rain,Fog
18:00 Legend Double Dagger 15.9 15.4 97 12 13 2.8 98.16     Rain,Fog
19:00 Legend Double Dagger 15.3 14.8 97 14 13 4.8 98.10     Rain,Fog
20:00 Legend Double Dagger 14.7 14.2 97 15 11 4.8 98.02     Rain,Fog
21:00 Legend Double Dagger 14.4 14.1 98 12 15 3.6 97.93     Rain,Fog
22:00 Legend Double Dagger 14.5 14.2 98 12 15 4.0 97.84     Fog
23:00 Legend Double Dagger 14.7 14.4 98 14 17 2.8 97.77     Rain,Fog

Notes on Data Quality.

Legend

  • E = Estimated
  • M = Missing
  • NA = Not Available
  • ‡ = Partner data that is not subject to review by the National Climate Archives
Date modified: